Bera, Spain
Current Conditions -  °F | °C
As of 2:30 PM on Friday 19 Dec 2014 (Local Time) from LESO Reporting Station
Broken Clouds Broken Clouds  
Wind Chill: 55°   Ceiling: 3500
Heat Index: 55°   Visibility: 6mi
Dew Point: 45°   Wind: 7mph
Humidity: 67%   Direction: 210°SSW
Pressure: 30.48"   Gusts: NA
Location:  43.28°N, 1.69°W
Report Text: LESO 191330Z 21006KT 9999 BKN035 13/07 Q1032
Loading
Personal Weather Stations






























Interactive Weather Map New forecast layout! Learn more

10-Day Weather Forecast

Advertisements
Track Severe Weather on mobile